This demonstration page uses our WeatherBlox Daily Observations layout. Learn more.

Left ArrowRight Arrow

36.19886, -115.1175

Hourly Observations for November 15, 2015

Temp ( °F °C ) Dew Point ( °F °C ) Humidity (%) Winds ( mph kmh ) Pressure ( in mb ) Visibility ( mi km ) Precip ( " mm )
12:53 am 00:53 Clear 46 7.8 23 -5 40 40 WNW 3 6 29.97 1015 10 16 0.00 0.00
1:53 am 01:53 Clear 45 7.2 23 -5 42 42 NW 3 6 29.96 1015 10 16 0.00 0.00
2:53 am 02:53 Clear 44 6.7 23 -5 43 43 NW 5 7 29.94 1014 10 16 0.00 0.00
3:53 am 03:53 Clear 44 6.7 24 -4.4 45 45 WNW 7 11 29.93 1013 10 16 0.00 0.00
4:53 am 04:53 Clear 41 5 24 -4.4 51 51 NW 3 6 29.93 1014 10 16 0.00 0.00
5:53 am 05:53 Clear 41 5 25 -3.9 53 53 Calm 29.93 1013 10 16 0.00 0.00
6:53 am 06:53 Sunny 43 6.1 26 -3.3 51 51 W 6 9 29.93 1014 10 16 0.00 0.00
7:53 am 07:53 Sunny 48 8.9 26 -3.3 42 42 NNW 3 6 29.92 1013 10 16 0.00 0.00
8:53 am 08:53 Sunny 54 12.2 25 -3.9 33 33 Calm 29.91 1013 10 16 0.00 0.00
9:53 am 09:53 Sunny 56 13.3 24 -4.4 29 29 Calm 29.91 1013 10 16 0.00 0.00
10:53 am 10:53 Mostly Sunny 56 13.3 23 -5 28 28 SE 6 9 29.88 1012 10 16 0.00 0.00
11:53 am 11:53 Sunny 59 15 24 -4.4 26 26 SSE 10 17 29.80 1009 10 16 0.00 0.00
12:53 pm 12:53 Sunny 62 16.7 26 -3.3 25 25 SE 6 9 29.76 1008 10 16 0.00 0.00
1:53 pm 13:53 Sunny 64 17.8 21 -6.1 19 19 S 8 13 29.72 1007 10 16 0.00 0.00
2:53 pm 14:53 Sunny 66 18.9 15 -9.4 14 14 SW 16 26 29.70 1006 10 16 0.00 0.00
3:53 pm 15:53 Sunny 64 17.8 19 -7.2 18 18 SW 13 20 29.69 1005 10 16 0.00 0.00
4:53 pm 16:53 Mostly Cloudy 63 17.2 22 -5.6 21 21 SW 15 24 29.67 1005 10 16 0.00 0.00
5:10 pm 17:10 Cloudy with Light Rain 59 15 30 -1 34 34 W 29 46 29.62 1003 10 16 0.00 0.00
5:53 pm 17:53 Cloudy with Light Rain 55 12.8 37 2.8 51 51 SW 17 28 29.72 1006 10 16 0.00 0.03
6:53 pm 18:53 Clear 53 11.7 37 2.8 55 55 SW 21 33 29.67 1005 10 16 0.00 0.03
7:53 pm 19:53 Clear 54 12.2 30 -1.1 40 40 WSW 12 19 29.63 1003 10 16 0.00 0.00
8:53 pm 20:53 Mostly Clear 54 12.2 27 -2.8 35 35 W 10 17 29.65 1004 10 16 0.00 0.00
9:38 pm 21:38 Clear 54 12 27 -3 35 35 SW 14 22 29.59 1002 10 16 0.00 0.00
9:53 pm 21:53 Clear 53 11.7 26 -3.3 35 35 WSW 15 24 29.62 1003 10 16 0.00 0.00
10:53 pm 22:53 Clear 52 11.1 27 -2.8 38 38 W 16 26 29.62 1003 10 16 0.00 0.00
11:53 pm 23:53 Mostly Cloudy 49 9.4 33 0.6 55 55 NW 22 35 29.66 1005 10 16 0.00 0.00

Powered by AerisWeather